Flag for Canada Weather past 2 weeks in Niagara Falls, Ontario, Canada

Now
45 °F

Broken clouds.


Feels Like: 40 °F
Forecast: 34 / 51 °F
Wind: 9 mph from Northwest

Location: Niagara Falls International Airport

Current Time: Apr 26, 2015 at 12:06:52 PM

Latest Report: Apr 26, 2015 at 10:53 AM


Visibility: 10 mi

Pressure: 29.87 "Hg

Humidity: 63%

Dew point: 33 °F

Location of Niagara FallsLocation

Historic Weather in Niagara Falls — Graph

°F

Niagara Falls temperature yesterday

Maximum temperature yesterday: 49 °F (at 3:53 PM)
Minimum temperature yesterday: 25 °F (at 6:53 AM)
Average temperature yesterday: 39 °F

Past Weeks' High & Low Weather Summary

 TemperatureHumidityPressure
High77 °F (Apr 13, 3:53 PM)97% (Apr 17, 2:53 AM)30.42 "Hg (Apr 17, 2:53 AM)
Low25 °F (Apr 25, 6:53 AM)21% (Apr 16, 2:53 PM)29.37 "Hg (Apr 20, 3:53 PM)
Average46 °F63%29.99 "Hg
* Reported Apr 11 10:53 AM — Apr 26 10:53 AM, Niagara Falls, Weather by CustomWeather, © 2015

Note: Actual official high and low records may vary slightly from our data, if they occured in-between our weather recording intervals... More about our weather records

Advertising

Niagara Falls weather history for previous 24 hours

 ConditionsComfort  
Time TempWeatherWind HumidityBarometerVisibility
10:53 AM
Sun, Apr 26
45 °FBroken clouds.9 mph63%29.87 "Hg10 mi
9:53 AM43 °FPartly sunny.3 mph68%29.87 "Hg10 mi
8:53 AM41 °FPartly sunny.5 mph74%29.87 "Hg10 mi
7:53 AM39 °FPartly sunny.6 mph73%29.86 "Hg10 mi
7:00 AM37 °FPassing clouds.3 mph76%29.82 "Hg10 mi
5:53 AM35 °FClear.No wind75%29.82 "Hg10 mi
4:53 AM31 °FClear.5 mph79%29.81 "Hg10 mi
3:53 AM35 °FClear.7 mph72%29.80 "Hg10 mi
2:53 AM36 °FClear.3 mph70%29.79 "Hg10 mi
1:53 AM37 °FClear.6 mph67%29.80 "Hg10 mi
12:53 AM37 °FClear.8 mph65%29.81 "Hg10 mi
11:53 PM
Sat, Apr 25
37 °FClear.9 mph67%29.83 "Hg10 mi
10:53 PM38 °FPassing clouds.No wind65%29.83 "Hg10 mi
9:53 PM40 °FPassing clouds.5 mph60%29.84 "Hg10 mi
8:53 PM44 °FPassing clouds.No wind49%29.83 "Hg10 mi
7:53 PM46 °FPassing clouds.5 mph48%29.83 "Hg10 mi
6:53 PM48 °FPassing clouds.10 mph43%29.83 "Hg10 mi
5:53 PM49 °FPassing clouds.14 mph41%29.83 "Hg10 mi
4:53 PM49 °FPassing clouds.9 mph41%29.84 "Hg10 mi
3:53 PM49 °FPassing clouds.15 mph43%29.86 "Hg10 mi
2:53 PM48 °FPassing clouds.8 mph41%29.90 "Hg10 mi
1:53 PM47 °FPassing clouds.13 mph42%29.92 "Hg10 mi
12:53 PM45 °FPassing clouds.N/A45%29.95 "Hg10 mi
Weather by CustomWeather, © 2015

See weather overviewHow to use our weather pages